Location: Unspecified
(0.0000°N, 0.0000°E)
Time: 16:29:16
(UTC+02:00)

Cosmos 1300 - Visible Passes

Search period start: 28 July 2016 00:00
Search period end: 07 August 2016 00:00
Orbit: 517 x 518 km, 82.5° (Epoch: 27 July)

Date Brightness Start Highest point End Pass type
(mag) Time Alt. Az. Time Alt. Az. Time Alt. Az.
28 Jul 5.5 07:07:40 10° SE 07:10:35 21° E 07:13:30 10° NE visible
28 Jul 6.1 20:37:28 10° WNW 20:38:45 11° W 20:40:03 10° WSW visible
29 Jul 5.7 06:53:37 10° SE 06:56:07 17° E 06:58:35 10° NE visible
30 Jul 5.9 06:39:48 10° ESE 06:41:37 13° E 06:43:27 10° ENE visible
31 Jul 6.2 06:26:47 10° E 06:27:08 10° E 06:27:30 10° E visible
02 Aug 3.4 07:30:10 10° SSW 07:33:38 33° W 07:37:06 10° NNW visible
03 Aug 3.0 07:15:30 10° SSW 07:19:09 43° W 07:22:47 10° NNW visible
04 Aug 2.7 07:01:17 12° SSW 07:04:40 56° W 07:08:25 10° N visible
05 Aug 2.5 06:48:07 26° SSW 06:50:11 74° W 06:54:00 10° N visible
06 Aug 2.6 06:34:55 55° S 06:35:42 84° E 06:39:31 10° N visible
